Home > Weather > New Bedford > Past weeks

Flag for USA Past Weather in New Bedford, Massachusetts, USA — Yesterday and Last 2 Weeks

Now
72 °F

Clear.


Feels Like: 69 °F
Forecast: 63 / 85 °F
Wind: No wind

Location: New Bedford Regional Airport

Current Time: Aug 27, 2016 at 1:01:18 AM

Latest Report: Aug 26, 2016 at 11:53 PM


Visibility: 10 mi

Pressure: 30.01 "Hg

Humidity: 91%

Dew Point: 69 °F

Location of New BedfordLocation

Past Weather in New Bedford — Graph

°F

New Bedford Temperature Yesterday

Maximum temperature yesterday: 89 °F (at 3:04 PM)
Minimum temperature yesterday: 71 °F (at 11:00 PM)
Average temperature yesterday: 79 °F

High & Low Weather Summary for the Past Weeks

 TemperatureHumidityPressure
High95 °F (Aug 14, 1:53 PM)97% (Aug 20, 1:53 AM)30.28 "Hg (Aug 20, 1:53 AM)
Low51 °F (Aug 23, 4:53 AM)31% (Aug 23, 1:53 PM)29.74 "Hg (Aug 22, 3:53 AM)
Average77 °F70%30.00 "Hg
* Reported Aug 12 10:53 AM — Aug 26 11:00 PM, New Bedford, Weather by CustomWeather, © 2016

Note: Actual official high and low records may vary slightly from our data, if they occured in-between our weather recording intervals... More about our weather records

Advertising

New Bedford Weather History for the Previous 24 Hours

Scroll right to see more
 ConditionsComfort  
Time TempWeatherWind HumidityBarometerVisibility
11:00 PM
Fri, Aug 26
71 °FFog.No wind93%30.00 "Hg2 mi
10:53 PM72 °FFog.No wind93%30.00 "Hg6 mi
9:53 PM74 °FClear.No wind91%29.99 "Hg8 mi
8:53 PM76 °FClear.No wind88%29.97 "Hg10 mi
7:53 PM79 °FSunny.3 mph82%29.96 "Hg10 mi
6:53 PM82 °FPassing clouds.7 mph74%29.95 "Hg10 mi
5:53 PM85 °FPartly sunny.12 mph68%29.94 "Hg10 mi
4:53 PM86 °FBroken clouds.10 mph65%29.93 "Hg10 mi
3:53 PM88 °FPartly sunny.12 mph63%29.92 "Hg10 mi
3:04 PM89 °FPartly sunny.13 mph61%29.92 "Hg10 mi
2:53 PM87 °FPartly sunny.6 mph63%29.91 "Hg10 mi
1:53 PM85 °FPartly sunny.9 mph72%29.93 "Hg10 mi
12:53 PM82 °FLight rain. Overcast.12 mph77%29.94 "Hg10 mi
11:53 AM81 °FCloudy.12 mph74%29.95 "Hg10 mi
10:53 AM82 °FBroken clouds.15 mph72%29.96 "Hg10 mi
9:53 AM80 °FScattered clouds.15 mph76%29.96 "Hg10 mi
8:53 AM79 °FSunny.12 mph77%29.97 "Hg10 mi
7:53 AM77 °FPassing clouds.10 mph82%29.98 "Hg10 mi
6:53 AM75 °FClear.7 mph85%29.98 "Hg10 mi
5:53 AM74 °FPassing clouds.7 mph88%29.97 "Hg10 mi
4:53 AM75 °FPassing clouds.13 mph85%29.96 "Hg10 mi
3:53 AM76 °FMostly cloudy.12 mph85%29.96 "Hg10 mi
2:53 AM75 °FMostly cloudy.8 mph85%29.97 "Hg10 mi
1:53 AM75 °FMostly cloudy.9 mph85%29.98 "Hg10 mi
Weather by CustomWeather, © 2016

See weather overviewHow to use our weather pages